www.pogodaiklimat.ru

Погода и климат >> Архив погоды >> Китай >> Внутренняя Монголия >> Линьси


ПОГОДА в Линьси

  • Прогноз погоды в Линьси
  • Монитор погоды в Линьси

АРХИВ ПОГОДЫ в Линьси

Время (UTC), дата Ветер
(напр.,м/с)
 
Видим.   Явления Облачность Т
(С)
Тd
(С)
f
(%)
Тe
(С)
Тes
(С)
Комфортность P
(гПа)
Po
(гПа)
Тmin
(С)
Tmax
(С)
R
(мм)
R24
(мм)
S
(см)
21 13.08 С 3 30 км н/о +16.5 +12.3 76 +16 +16 1005.4 914.8
00 14.08 СЗ 3 30 км 9/9 1000 м
[]
+19.6 +13.3 67 +21 +22 комфорт 1006.1 916.4
03 14.08 СЗ 2 30 км 9/9 1000 м
[]
+23.9 +12.5 49 +26 +27 жарко 1005.5 917.1
06 14.08 ЮВ 3 30 км 9/9 1000 м
[]
+26.2 +12.6 43 +28 +29 жарко 1003.4 915.8 +15.2
09 14.08 В 4 30 км 8/8
[]
+26.1 +12.2 42 +28 +28 жарко 1002.2 914.7
12 14.08 С 1 15 км 8/8
[]
+19.9 +15.5 76 +23 +23 комфорт 1003.1 913.7
18 14.08 С 1 30 км ?/? +16.3 +12.7 79 +17 +17 1002.4 911.3 +26.9 1
21 14.08 Ю 1 30 км в посл. час дождь н/о +16.8 +12.3 75 +18 +18 1000.7 910.7
00 15.08 В 2 30 км 3/3
[]
+20.9 +12.6 59 +24 +28 комфорт 1000.9 912.0 0.7
03 15.08 В 1 30 км 9/9 1000 м
[]
+23.2 +12.2 50 +26 +28 жарко 999.7 911.6
06 15.08 ЮВ 2 30 км 6/6 1000 м
[]
+24.9 +13.1 48 +27 +32 жарко 997.8 910.3 +15.5
09 15.08 СЗ 2 30 км {дождь} 9/9 1000 м
[]
+17.9 +14.0 78 +18 +19 998.0 908.5
12 15.08 З 2 28 км {дождь} 9/9 1000 м
[]
+17.2 +13.9 81 +18 +18 998.8 909.0 4
18 15.08 СЗ 2 30 км ?/? +14.4 +12.3 87 +14 +14 998.1 907.6 +26.0
21 15.08 С 3 30 км н/о +15.6 +12.5 82 +15 +15 999.9 909.6
00 16.08 С 4 30 км 9/9 1000 м
[]
+17.0 +12.3 74 +17 +17 999.6 909.7 0.0
03 16.08 СЗ 5 30 км 9/9 1000 м
[]
+16.5 +11.6 73 +16 +16 1001.7 911.5
06 16.08 СЗ 4 30 км слаб. дождь 9/9 1000 м
[]
+16.7 +11.6 72 +16 +17 1001.5 911.4 +13.8 0.0
09 16.08 С 3 18 км слаб. дождь 9/9 1000 м
[]
+14.7 +11.3 80 +14 +14 1001.8 911.0
12 16.08 С 5 30 км {дождь} 9/9 1000 м
[]
+15.7 +10.2 70 +15 +15 1001.8 911.3 1
18 16.08 СЗ 5 30 км ?/? +15.7 +11.1 74 +15 +15 1000.3 910.0 +17.1 0.1
21 16.08 СЗ 5 30 км н/о +16.1 +10.0 67 +15 +15 1001.2 910.9
00 17.08 СЗ 6 30 км 9/9 1000 м
[]
+15.9 +10.2 69 +15 +15 1002.7 912.2 0.1
03 17.08 СЗ 8 30 км 9/9 1000 м
[]
+17.6 +10.0 61 +17 +17 1003.6 913.5
06 17.08 СЗ 6 30 км 9/9 1000 м
[]
+19.1 +9.6 54 +19 +20 1003.3 913.7 +14.6
09 17.08 С 5 30 км 8/8 1000 м
[]
+19.8 +8.5 48 +21 +21 комфорт 1003.2 913.8
12 17.08 С 1 30 км 8/8 1000 м
[]
+17.2 +9.1 59 +18 +18 1004.7 914.4
18 17.08 СЗ 1 30 км ?/? +10.9 +9.2 89 +11 +11 1006.3 914.0 +20.4
21 17.08 штиль 0 30 км н/о +10.1 +8.0 87 +9 +9 1006.7 914.1
00 18.08 ЮВ 2 30 км 8/8 1000 м
[]
+18.7 +9.8 56 +20 +21 1007.3 917.2
03 18.08 С 5 30 км 6/6 1000 м
[]
+22.9 +7.1 36 +24 +27 комфорт 1006.9 918.1
06 18.08 С 4 30 км 9/9 1000 м
[]
+23.4 +6.2 33 +24 +25 комфорт 1006.7 918.0 +9.2
09 18.08 С 3 30 км 6/6 1000 м
[]
+24.9 +6.2 30 +25 +26 комфорт 1006.1 917.9
12 18.08 С 2 20 км 8/8 1000 м
[]
+17.4 +12.7 74 +18 +18 1007.1 916.7
18 18.08 З 1 30 км ?/? +12.3 +9.5 83 +12 +12 1008.6 916.5 +25.3
21 18.08 Ю 1 25 км н/о +10.5 +8.8 89 +10 +10 1009.6 916.8
00 19.08 штиль 0 30 км ясно +18.9 +10.7 59 +20 +26 1010.5 920.2
03 19.08 В 3 28 км 3/3
[]
+22.2 +10.7 48 +24 +33 комфорт 1010.6 921.2
06 19.08 В 5 30 км 4/4 1000 м
[]
+24.3 +12.0 46 +26 +30 жарко 1009.3 920.7 +10.3
09 19.08 В 4 29 км 5/5 1000 м
[]
+24.4 +14.2 53 +27 +28 жарко 1008.8 920.2
12 19.08 В 3 27 км 5/5 1000 м
[]
+21.3 +13.5 61 +24 +24 комфорт 1008.7 919.3
18 19.08 С 1 30 км ?/? +18.0 +14.9 82 +19 +19 1006.3 916.1 +25.1
21 19.08 С 1 9000 м слаб. дождь н/о +17.3 +15.6 90 +18 +18 1005.8 915.4
00 20.08 штиль 0 н/о слаб. дождь 10/10 1000 м
[]
+17.5 +16.0 91 +17 +17 1005.3 915.0 2
03 20.08 В 2 21 км {дождь} 9/9 1000 м
[]
+18.7 +15.4 81 +20 +22 1003.5 913.8
06 20.08 В 1 6000 м в посл. час дождь 9/9 1000 м
[]
+19.0 +16.2 84 +22 +23 комфорт 1001.9 912.4 +16.9 2
09 20.08 С 1 30 км {дождь} 9/9 1000 м
[]
+22.2 +15.6 66 +26 +26 душно 1000.4 912.0
12 20.08 С 3 30 км {дождь} 9/9 1000 м
[]
+18.9 +12.4 66 +20 +20 1003.1 913.5 2
18 20.08 З 6 30 км ?/? +16.1 +7.3 56 +15 +15 1005.9 915.2 +23.0

 

Местоположение метеостанции Линьси (Внутренняя Монголия, Китай): широта 43.60 долгота 118.06 высота над уровнем моря 800 м.

В архиве по умолчанию представлена погода в Линьси за последнюю неделю. Архивные данные за месяц целиком и за предыдущие месяцы, начиная с января 2011 года, Вы можете получить, выбрав интересующий диапазон дат из раскрывающегося списка и нажав кнопку "Ввод!".


*Определитесь, кто Вы:
робот инопланетянин человек

Внимание! Время в таблицах - всемирное. Для получения местного времени необходимо прибавить поправку, которая равна 8 ч.

Смотрите также архив погоды в соседних городах и на ближайших метеорологических станциях:

Погода в Си-Уджимчин-Ци (Внутренняя Монголия, Китай) (115 км)
Погода в Байрин-Цзоци (Внутренняя Монголия, Китай) (116 км)
Погода в Шилин-Хото (Внутренняя Монголия, Китай) (161 км)
Погода в Чифэне (Внутренняя Монголия, Китай) (165 км)
Погода в Вэйчане (Хэбэй, Китай) (187 км)
Погода в Долуне (Внутренняя Монголия, Китай) (205 км)
Погода в Дун-Уджимчин-Ци (Внутренняя Монголия, Китай) (231 км)
Погода в Джаруд-Ци (Внутренняя Монголия, Китай) (251 км)
Погода в Баянчагане (Внутренняя Монголия, Китай) (254 км)
Погода в Дабейва (Внутренняя Монголия, Китай) (257 км)

Пояснения к столбцам:

Ветер - указаны скорость ветра в м/с - средняя за 10 мин, порывы в срок и между сроками (в фигурных скобках) и направление, откуда дует ветер: С - северный, СВ - северо-восточный, В - восточный, ЮВ - юго-восточный, Ю - южный, ЮЗ - юго-западный, З - западный, СЗ - северо-западный.
Видимость - горизонтальная дальность видимости в метрах или километрах. При видимости от 1 до 10 км при отсутствии осадков обычно наблюдается дымка, при ухудшении видимости до 1 км и менее - туман. В сухую погоду видимость может ухудшаться дымом, пылью или мглою.
Явления - указаны атмосферные явления, наблюдавшиеся в срок или в последний час перед сроком; фигурными скобками обозначены явления, наблюдавшиеся между сроками (за 1-3 часа до срока); квадратными скобками обозначены град или гололедные отложения с указанием их диаметра в мм.
Облачность - указаны через наклонную черту общая и нижняя облачность в баллах и высота нижней границы облаков в метрах; квадратными скобками обозначены формы облаков: Ci - перистые, Cs - перисто-слоистые, Cc - перисто-кучевые, Ac - высококучевые, As - высокослоистые, Sc - слоисто-кучевые, Ns - слоисто-дождевые, Cu - кучевые, Cb - кучево-дождевые. Подробнее классификацию облаков см. в Атласе облаков (PDF).
T - Температура воздуха - температура, измеренная на высоте 2 м над землей.
Td - Температура точки росы - температура, при понижении до которой содержащийся в воздухе водяной пар достигнет насыщения.
f - Относительная влажность воздуха - влажноcть воздуха, измеренная на высоте 2 м над землей.
Te - Эффективная температура - температура, которую ощущает одетый по сезону человек в тени. Характеристика душности погоды. При расчете учитывается влияние влажности воздуха и скорости ветра на теплоощущения человека.
Tes - Эффективная температура на солнце - температура, которую ощущает человек, с поправкой на солнечный нагрев. Характеристика знойности погоды. Зависит от высоты солнца над горизонтом, облачности и скорости ветра. Ночью, в пасмурную погоду, а также при ветре 12 м/с и более поправка равна нулю.
P - Атмосферное давление - приведенное к уровню моря атмосферное давление.
Po - Атмосферное давление - измеренное на уровне метеостанции атмосферное давление.
Tmin - Минимальная температура - минимум температуры воздуха на высоте 2 м над землей.
Tmax - Максимальная температура - максимум температуры воздуха на высоте 2 м над землей.
R - Количество осадков - Количество выпавших осадков за период времени, мм. При наведении курсора мыши на число - период времени, за который выпало указанное количество осадков.
R24 - Количество осадков - Количество выпавших осадков за 24 часа, мм.
S - Снежный покров - Высота снежного покрова, см. При наведении курсора мыши на число - состояние снежного покрова и степень покрытия местности в баллах.